Time,TemperatureF,DewpointF,PressureIn,WindDirection,WindDirectionDegrees,WindSpeedMPH,WindSpeedGustMPH,Humidity,HourlyPrecipIn,Conditions,Clouds,dailyrainin,SoftwareType,DateUTC
2013-02-13 00:04:00,32.9,23.8,29.92,WSW,246,2.0,12.0,69,0.00,,,0.00,Wunderground v.1.15,2013-02-13 05:04:00,
2013-02-13 00:09:00,33.0,23.6,29.92,WNW,290,4.0,10.0,68,0.00,,,0.00,Wunderground v.1.15,2013-02-13 05:09:00,
2013-02-13 00:14:00,32.9,23.5,29.92,WSW,251,2.0,10.0,68,0.00,,,0.00,Wunderground v.1.15,2013-02-13 05:14:00,
2013-02-13 00:20:00,32.9,23.1,29.93,West,261,4.0,7.0,67,0.00,,,0.00,Wunderground v.1.15,2013-02-13 05:20:00,
2013-02-13 00:25:00,32.8,23.0,29.93,West,263,1.0,7.0,67,0.00,,,0.00,Wunderground v.1.15,2013-02-13 05:25:00,
2013-02-13 00:30:00,32.8,23.0,29.93,West,273,3.0,5.0,67,0.00,,,0.00,Wunderground v.1.15,2013-02-13 05:30:00,
2013-02-13 00:36:00,32.7,22.9,29.93,WNW,287,4.0,8.0,67,0.00,,,0.00,Wunderground v.1.15,2013-02-13 05:36:00,
2013-02-13 00:41:00,32.7,22.6,29.92,NW,304,1.0,4.0,66,0.00,,,0.00,Wunderground v.1.15,2013-02-13 05:41:00,
2013-02-13 00:46:00,32.6,22.5,29.92,WNW,302,6.0,6.0,66,0.00,,,0.00,Wunderground v.1.15,2013-02-13 05:46:00,
2013-02-13 00:51:00,32.6,22.5,29.92,WSW,248,3.0,9.0,66,0.00,,,0.00,Wunderground v.1.15,2013-02-13 05:51:00,
2013-02-13 00:57:00,32.4,22.3,29.92,WSW,257,3.0,4.0,66,0.00,,,0.00,Wunderground v.1.15,2013-02-13 05:57:00,
2013-02-13 01:02:00,32.2,22.1,29.92,West,278,2.0,5.0,66,0.00,,,0.00,Wunderground v.1.15,2013-02-13 06:02:00,
2013-02-13 01:08:00,32.0,21.9,29.92,West,263,4.0,4.0,66,0.00,,,0.00,Wunderground v.1.15,2013-02-13 06:08:00,
2013-02-13 01:13:00,32.0,21.9,29.92,West,273,5.0,5.0,66,0.00,,,0.00,Wunderground v.1.15,2013-02-13 06:13:00,
2013-02-13 01:18:00,32.1,21.7,29.91,WSW,256,2.0,7.0,65,0.00,,,0.00,Wunderground v.1.15,2013-02-13 06:18:00,
2013-02-13 01:24:00,31.9,21.8,29.91,WSW,252,2.0,7.0,66,0.00,,,0.00,Wunderground v.1.15,2013-02-13 06:24:00,
2013-02-13 01:29:00,31.8,21.7,29.91,WSW,239,5.0,5.0,66,0.00,,,0.00,Wunderground v.1.15,2013-02-13 06:29:00,
2013-02-13 01:34:00,31.8,21.4,29.91,West,281,1.0,5.0,65,0.00,,,0.00,Wunderground v.1.15,2013-02-13 06:34:00,
2013-02-13 01:39:00,31.5,21.4,29.92,West,281,1.0,3.0,66,0.00,,,0.00,Wunderground v.1.15,2013-02-13 06:39:00,
2013-02-13 01:44:00,31.4,21.3,29.92,West,260,1.0,4.0,66,0.00,,,0.00,Wunderground v.1.15,2013-02-13 06:44:00,
2013-02-13 01:50:00,31.2,21.2,29.92,West,279,1.0,2.0,66,0.00,,,0.00,Wunderground v.1.15,2013-02-13 06:50:00,
2013-02-13 01:56:00,31.1,21.1,29.92,WNW,302,2.0,6.0,66,0.00,,,0.00,Wunderground v.1.15,2013-02-13 06:56:00,
2013-02-13 02:01:00,31.0,21.3,29.92,West,269,2.0,3.0,67,0.00,,,0.00,Wunderground v.1.15,2013-02-13 07:01:00,
2013-02-13 02:06:00,30.8,21.1,29.92,West,272,3.0,3.0,67,0.00,,,0.00,Wunderground v.1.15,2013-02-13 07:06:00,
2013-02-13 02:12:00,30.8,21.1,29.92,West,271,4.0,4.0,67,0.00,,,0.00,Wunderground v.1.15,2013-02-13 07:12:00,
2013-02-13 02:17:00,30.7,21.4,29.92,WNW,284,1.0,2.0,68,0.00,,,0.00,Wunderground v.1.15,2013-02-13 07:17:00,
2013-02-13 02:22:00,30.7,21.4,29.92,WNW,286,2.0,5.0,68,0.00,,,0.00,Wunderground v.1.15,2013-02-13 07:22:00,
2013-02-13 02:27:00,30.6,21.3,29.93,WNW,287,4.0,4.0,68,0.00,,,0.00,Wunderground v.1.15,2013-02-13 07:27:00,
2013-02-13 02:32:00,30.5,21.2,29.93,WSW,248,2.0,6.0,68,0.00,,,0.00,Wunderground v.1.15,2013-02-13 07:32:00,
2013-02-13 02:37:00,30.5,21.2,29.93,West,259,3.0,3.0,68,0.00,,,0.00,Wunderground v.1.15,2013-02-13 07:37:00,
2013-02-13 02:42:00,30.4,21.1,29.93,West,266,1.0,7.0,68,0.00,,,0.00,Wunderground v.1.15,2013-02-13 07:42:00,
2013-02-13 02:47:00,30.2,21.2,29.93,West,269,0.0,2.0,69,0.00,,,0.00,Wunderground v.1.15,2013-02-13 07:47:00,
2013-02-13 02:52:00,30.1,21.2,29.93,WSW,255,2.0,5.0,69,0.00,,,0.00,Wunderground v.1.15,2013-02-13 07:52:00,
2013-02-13 02:57:00,30.1,21.2,29.93,West,266,2.0,3.0,69,0.00,,,0.00,Wunderground v.1.15,2013-02-13 07:57:00,
2013-02-13 03:02:00,30.1,21.2,29.93,WSW,256,1.0,5.0,69,0.00,,,0.00,Wunderground v.1.15,2013-02-13 08:02:00,
2013-02-13 03:07:00,30.1,21.5,29.94,WSW,250,1.0,2.0,70,0.00,,,0.00,Wunderground v.1.15,2013-02-13 08:07:00,
2013-02-13 03:12:00,30.0,21.4,29.94,WSW,255,3.0,5.0,70,0.00,,,0.00,Wunderground v.1.15,2013-02-13 08:12:00,
2013-02-13 03:18:00,29.9,21.3,29.94,West,268,3.0,4.0,70,0.00,,,0.00,Wunderground v.1.15,2013-02-13 08:18:00,
2013-02-13 03:23:00,29.8,21.2,29.95,West,260,4.0,4.0,70,0.00,,,0.00,Wunderground v.1.15,2013-02-13 08:23:00,
2013-02-13 03:28:00,30.0,21.4,29.95,West,272,4.0,4.0,70,0.00,,,0.00,Wunderground v.1.15,2013-02-13 08:28:00,
2013-02-13 03:33:00,30.0,21.4,29.94,West,267,3.0,6.0,70,0.00,,,0.00,Wunderground v.1.15,2013-02-13 08:33:00,
2013-02-13 03:38:00,29.9,21.3,29.94,West,267,1.0,2.0,70,0.00,,,0.00,Wunderground v.1.15,2013-02-13 08:38:00,
2013-02-13 03:43:00,29.8,21.5,29.94,West,267,1.0,3.0,71,0.00,,,0.00,Wunderground v.1.15,2013-02-13 08:43:00,
2013-02-13 03:48:00,29.7,21.4,29.94,West,267,1.0,3.0,71,0.00,,,0.00,Wunderground v.1.15,2013-02-13 08:48:00,
2013-02-13 03:53:00,29.6,21.3,29.94,WSW,248,1.0,4.0,71,0.00,,,0.00,Wunderground v.1.15,2013-02-13 08:53:00,
2013-02-13 03:58:00,29.5,21.3,29.94,West,266,1.0,3.0,71,0.00,,,0.00,Wunderground v.1.15,2013-02-13 08:58:00,
2013-02-13 04:03:00,29.5,21.3,29.94,West,266,0.0,3.0,71,0.00,,,0.00,Wunderground v.1.15,2013-02-13 09:03:00,
2013-02-13 04:08:00,29.4,21.5,29.95,West,266,1.0,1.0,72,0.00,,,0.00,Wunderground v.1.15,2013-02-13 09:08:00,
2013-02-13 04:14:00,29.2,21.3,29.95,West,266,1.0,3.0,72,0.00,,,0.00,Wunderground v.1.15,2013-02-13 09:14:00,
2013-02-13 04:18:00,29.2,21.3,29.95,West,266,0.0,1.0,72,0.00,,,0.00,Wunderground v.1.15,2013-02-13 09:18:00,
2013-02-13 04:24:00,29.2,21.3,29.95,West,266,1.0,2.0,72,0.00,,,0.00,Wunderground v.1.15,2013-02-13 09:24:00,
2013-02-13 04:29:00,29.2,21.3,29.94,West,266,2.0,2.0,72,0.00,,,0.00,Wunderground v.1.15,2013-02-13 09:29:00,
2013-02-13 04:34:00,28.9,21.3,29.94,West,266,0.0,3.0,73,0.00,,,0.00,Wunderground v.1.15,2013-02-13 09:34:00,
2013-02-13 04:39:00,28.5,20.9,29.95,West,266,0.0,1.0,73,0.00,,,0.00,Wunderground v.1.15,2013-02-13 09:39:00,
2013-02-13 04:44:00,28.8,23.4,29.95,West,266,0.0,1.0,80,0.00,,,0.00,Wunderground v.1.15,2013-02-13 09:44:00,
2013-02-13 04:49:00,33.1,30.2,29.95,West,266,0.0,0.0,89,0.00,,,0.00,Wunderground v.1.15,2013-02-13 09:49:00,
2013-02-13 04:54:00,32.8,29.9,29.95,West,266,0.0,1.0,89,0.00,,,0.00,Wunderground v.1.15,2013-02-13 09:54:00,
2013-02-13 04:59:00,37.2,34.5,29.95,West,266,0.0,1.0,90,0.00,,,0.00,Wunderground v.1.15,2013-02-13 09:59:00,
2013-02-13 05:04:00,34.8,31.9,29.94,West,266,0.0,1.0,89,0.00,,,0.00,Wunderground v.1.15,2013-02-13 10:04:00,
2013-02-13 05:09:00,36.8,34.1,29.95,West,266,0.0,0.0,90,0.00,,,0.00,Wunderground v.1.15,2013-02-13 10:09:00,
2013-02-13 05:14:00,37.4,35.0,29.94,West,266,0.0,2.0,91,0.00,,,0.00,Wunderground v.1.15,2013-02-13 10:14:00,
2013-02-13 05:19:00,36.2,33.3,29.94,West,266,0.0,1.0,89,0.00,,,0.00,Wunderground v.1.15,2013-02-13 10:19:00,
2013-02-13 05:24:00,32.5,27.9,29.94,West,266,0.0,1.0,83,0.00,,,0.00,Wunderground v.1.15,2013-02-13 10:24:00,
2013-02-13 05:29:00,35.5,32.6,29.94,West,266,0.0,0.0,89,0.00,,,0.00,Wunderground v.1.15,2013-02-13 10:29:00,
2013-02-13 05:34:00,52.4,49.3,29.95,West,266,0.0,1.0,89,0.00,,,0.00,Wunderground v.1.15,2013-02-13 10:34:00,
2013-02-13 05:39:00,55.3,51.8,29.94,West,266,0.0,1.0,88,0.00,,,0.00,Wunderground v.1.15,2013-02-13 10:39:00,
2013-02-13 05:44:00,42.8,40.1,29.94,West,266,0.0,2.0,90,0.00,,,0.00,Wunderground v.1.15,2013-02-13 10:44:00,
2013-02-13 05:49:00,34.1,31.7,29.93,West,266,0.0,0.0,91,0.00,,,0.00,Wunderground v.1.15,2013-02-13 10:49:00,
2013-02-13 05:54:00,29.7,26.0,29.94,West,266,0.0,2.0,86,0.00,,,0.00,Wunderground v.1.15,2013-02-13 10:54:00,
2013-02-13 05:59:00,27.8,24.2,29.93,West,266,0.0,0.0,86,0.00,,,0.00,Wunderground v.1.15,2013-02-13 10:59:00,
2013-02-13 06:04:00,26.9,23.5,29.94,West,266,0.0,0.0,87,0.00,,,0.00,Wunderground v.1.15,2013-02-13 11:04:00,
2013-02-13 06:09:00,26.0,22.7,29.94,West,266,0.0,1.0,87,0.00,,,0.00,Wunderground v.1.15,2013-02-13 11:09:00,
2013-02-13 06:14:00,25.7,22.6,29.94,West,266,0.0,1.0,88,0.00,,,0.00,Wunderground v.1.15,2013-02-13 11:14:00,
2013-02-13 06:19:00,27.4,24.9,29.94,West,266,0.0,0.0,90,0.00,,,0.00,Wunderground v.1.15,2013-02-13 11:19:00,
2013-02-13 06:24:00,30.4,27.8,29.94,West,266,1.0,2.0,90,0.00,,,0.00,Wunderground v.1.15,2013-02-13 11:24:00,
2013-02-13 06:29:00,32.0,29.7,29.94,West,266,0.0,2.0,91,0.00,,,0.00,Wunderground v.1.15,2013-02-13 11:29:00,
2013-02-13 06:34:00,28.3,25.7,29.94,West,266,1.0,2.0,90,0.00,,,0.00,Wunderground v.1.15,2013-02-13 11:34:00,
2013-02-13 06:39:00,26.2,23.1,29.94,West,266,1.0,2.0,88,0.00,,,0.00,Wunderground v.1.15,2013-02-13 11:39:00,
2013-02-13 06:44:00,25.5,22.2,29.94,West,266,0.0,2.0,87,0.00,,,0.00,Wunderground v.1.15,2013-02-13 11:44:00,
2013-02-13 06:49:00,25.3,22.0,29.95,West,266,1.0,2.0,87,0.00,,,0.00,Wunderground v.1.15,2013-02-13 11:49:00,
2013-02-13 06:54:00,25.1,21.8,29.95,West,266,0.0,2.0,87,0.00,,,0.00,Wunderground v.1.15,2013-02-13 11:54:00,
2013-02-13 06:59:00,25.3,22.0,29.95,West,266,0.0,0.0,87,0.00,,,0.00,Wunderground v.1.15,2013-02-13 11:59:00,
2013-02-13 07:04:00,31.6,29.0,29.95,West,266,0.0,1.0,90,0.00,,,0.00,Wunderground v.1.15,2013-02-13 12:04:00,
2013-02-13 07:09:00,36.9,34.2,29.95,West,266,0.0,0.0,90,0.00,,,0.00,Wunderground v.1.15,2013-02-13 12:09:00,
2013-02-13 07:14:00,35.0,32.4,29.94,West,266,0.0,1.0,90,0.00,,,0.00,Wunderground v.1.15,2013-02-13 12:14:00,
2013-02-13 07:19:00,40.6,37.6,29.94,West,266,0.0,0.0,89,0.00,,,0.00,Wunderground v.1.15,2013-02-13 12:19:00,
2013-02-13 07:24:00,50.7,47.6,29.94,West,266,0.0,1.0,89,0.00,,,0.00,Wunderground v.1.15,2013-02-13 12:24:00,
2013-02-13 07:29:00,55.2,52.0,29.94,West,266,1.0,1.0,89,0.00,,,0.00,Wunderground v.1.15,2013-02-13 12:29:00,
2013-02-13 07:34:00,47.9,45.1,29.94,WSW,252,0.0,1.0,90,0.00,,,0.00,Wunderground v.1.15,2013-02-13 12:34:00,
2013-02-13 07:39:00,40.6,38.2,29.94,WSW,252,0.0,0.0,91,0.00,,,0.00,Wunderground v.1.15,2013-02-13 12:39:00,
2013-02-13 07:44:00,34.7,30.9,29.94,WSW,252,0.0,0.0,86,0.00,,,0.00,Wunderground v.1.15,2013-02-13 12:44:00,
2013-02-13 07:49:00,29.7,26.0,29.94,WSW,252,0.0,2.0,86,0.00,,,0.00,Wunderground v.1.15,2013-02-13 12:49:00,
2013-02-13 07:54:00,27.4,24.3,29.94,WSW,252,0.0,2.0,88,0.00,,,0.00,Wunderground v.1.15,2013-02-13 12:54:00,
2013-02-13 07:56:00,26.8,24.3,29.95,WSW,252,1.0,1.0,90,0.00,,,0.00,Wunderground v.1.15,2013-02-13 12:56:00,
2013-02-13 07:57:00,27.0,24.7,29.95,WSW,252,0.0,1.0,91,0.00,,,0.00,Wunderground v.1.15,2013-02-13 12:57:00,
2013-02-13 07:58:00,27.0,24.5,29.95,WSW,252,0.0,1.0,90,0.00,,,0.00,Wunderground v.1.15,2013-02-13 12:58:00,
2013-02-13 07:59:00,26.2,23.4,29.94,WSW,252,0.0,1.0,89,0.00,,,0.00,Wunderground v.1.15,2013-02-13 12:59:00,
2013-02-13 08:00:00,27.2,24.7,29.95,West,260,1.0,1.0,90,0.00,,,0.00,Wunderground v.1.15,2013-02-13 13:00:00,
2013-02-13 08:01:00,27.3,25.0,29.95,West,260,2.0,2.0,91,0.00,,,0.00,Wunderground v.1.15,2013-02-13 13:01:00,
2013-02-13 08:02:00,27.4,24.9,29.95,West,260,1.0,2.0,90,0.00,,,0.00,Wunderground v.1.15,2013-02-13 13:02:00,
2013-02-13 08:03:00,27.5,25.0,29.95,West,261,2.0,3.0,90,0.00,,,0.00,Wunderground v.1.15,2013-02-13 13:03:00,
2013-02-13 08:04:00,25.8,23.0,29.95,WSW,252,0.0,1.0,89,0.00,,,0.00,Wunderground v.1.15,2013-02-13 13:04:00,
2013-02-13 08:09:00,26.0,23.5,29.95,WSW,252,0.0,0.0,90,0.00,,,0.00,Wunderground v.1.15,2013-02-13 13:09:00,
2013-02-13 08:15:00,26.9,24.6,29.95,WSW,252,1.0,1.0,91,0.00,,,0.00,Wunderground v.1.15,2013-02-13 13:15:00,
2013-02-13 08:20:00,27.5,25.0,29.95,West,260,1.0,2.0,90,0.00,,,0.00,Wunderground v.1.15,2013-02-13 13:20:00,
2013-02-13 08:25:00,28.1,25.3,29.95,West,262,1.0,3.0,89,0.00,,,0.00,Wunderground v.1.15,2013-02-13 13:25:00,
2013-02-13 08:30:00,28.8,25.4,29.95,West,262,0.0,1.0,87,0.00,,,0.00,Wunderground v.1.15,2013-02-13 13:30:00,
2013-02-13 08:35:00,33.7,31.1,29.95,West,262,1.0,1.0,90,0.00,,,0.00,Wunderground v.1.15,2013-02-13 13:35:00,
2013-02-13 08:40:00,34.2,31.6,29.95,West,263,0.0,2.0,90,0.00,,,0.00,Wunderground v.1.15,2013-02-13 13:40:00,
2013-02-13 08:45:00,34.2,31.0,29.95,WNW,296,1.0,4.0,88,0.00,,,0.00,Wunderground v.1.15,2013-02-13 13:45:00,
2013-02-13 08:50:00,32.2,25.8,29.95,West,259,5.0,5.0,77,0.00,,,0.00,Wunderground v.1.15,2013-02-13 13:50:00,
2013-02-13 08:55:00,32.1,25.1,29.95,West,263,2.0,7.0,75,0.00,,,0.00,Wunderground v.1.15,2013-02-13 13:55:00,
2013-02-13 09:00:00,32.7,25.0,29.95,WSW,248,0.0,3.0,73,0.00,,,0.00,Wunderground v.1.15,2013-02-13 14:00:00,
2013-02-13 09:05:00,33.3,25.2,29.95,West,265,3.0,9.0,72,0.00,,,0.00,Wunderground v.1.15,2013-02-13 14:05:00,
2013-02-13 09:10:00,33.4,24.7,29.95,West,273,3.0,7.0,70,0.00,,,0.00,Wunderground v.1.15,2013-02-13 14:10:00,
2013-02-13 09:15:00,33.6,24.5,29.95,South,181,5.0,7.0,69,0.00,,,0.00,Wunderground v.1.15,2013-02-13 14:15:00,
2013-02-13 09:20:00,33.7,24.6,29.95,SW,225,4.0,9.0,69,0.00,,,0.00,Wunderground v.1.15,2013-02-13 14:20:00,
2013-02-13 09:25:00,34.0,24.5,29.95,WNW,284,2.0,9.0,68,0.00,,,0.00,Wunderground v.1.15,2013-02-13 14:25:00,
2013-02-13 09:30:00,34.1,24.3,29.94,NNW,329,9.0,9.0,67,0.00,,,0.00,Wunderground v.1.15,2013-02-13 14:30:00,
2013-02-13 09:35:00,34.6,26.2,29.94,West,271,7.0,9.0,71,0.00,,,0.00,Wunderground v.1.15,2013-02-13 14:35:00,
2013-02-13 09:40:00,35.3,27.2,29.94,NW,316,6.0,7.0,72,0.00,,,0.00,Wunderground v.1.15,2013-02-13 14:40:00,
2013-02-13 09:45:00,35.7,27.2,29.94,WNW,287,2.0,7.0,71,0.00,,,0.00,Wunderground v.1.15,2013-02-13 14:45:00,
2013-02-13 09:50:00,35.7,25.8,29.94,WSW,254,3.0,6.0,67,0.00,,,0.00,Wunderground v.1.15,2013-02-13 14:50:00,
2013-02-13 09:55:00,35.6,25.4,29.94,West,275,3.0,9.0,66,0.00,,,0.00,Wunderground v.1.15,2013-02-13 14:55:00,
2013-02-13 10:00:00,36.0,26.1,29.93,SW,231,6.0,7.0,67,0.00,,,0.00,Wunderground v.1.15,2013-02-13 15:00:00,
2013-02-13 10:05:00,35.7,25.1,29.93,West,277,2.0,9.0,65,0.00,,,0.00,Wunderground v.1.15,2013-02-13 15:05:00,
2013-02-13 10:10:00,35.9,25.3,29.93,NW,319,2.0,6.0,65,0.00,,,0.00,Wunderground v.1.15,2013-02-13 15:10:00,
2013-02-13 10:15:00,35.7,24.3,29.93,WNW,291,7.0,7.0,63,0.00,,,0.00,Wunderground v.1.15,2013-02-13 15:15:00,
2013-02-13 10:20:00,35.5,24.5,29.93,WSW,254,2.0,8.0,64,0.00,,,0.00,Wunderground v.1.15,2013-02-13 15:20:00,
2013-02-13 10:25:00,35.7,24.3,29.92,NW,308,3.0,8.0,63,0.00,,,0.00,Wunderground v.1.15,2013-02-13 15:25:00,
2013-02-13 10:30:00,36.0,24.6,29.92,WSW,255,0.0,5.0,63,0.00,,,0.00,Wunderground v.1.15,2013-02-13 15:30:00,
2013-02-13 10:35:00,36.3,24.9,29.92,WSW,247,5.0,7.0,63,0.00,,,0.00,Wunderground v.1.15,2013-02-13 15:35:00,
2013-02-13 10:40:00,36.3,24.5,29.92,West,267,2.0,9.0,62,0.00,,,0.00,Wunderground v.1.15,2013-02-13 15:40:00,
2013-02-13 10:45:00,36.1,23.9,29.92,West,260,4.0,10.0,61,0.00,,,0.00,Wunderground v.1.15,2013-02-13 15:45:00,
2013-02-13 10:50:00,36.5,25.1,29.91,WNW,282,2.0,8.0,63,0.00,,,0.00,Wunderground v.1.15,2013-02-13 15:50:00,
2013-02-13 10:55:00,36.7,24.1,29.91,WSW,252,2.0,8.0,60,0.00,,,0.00,Wunderground v.1.15,2013-02-13 15:55:00,
2013-02-13 11:00:00,36.5,23.9,29.91,SSW,205,1.0,7.0,60,0.00,,,0.00,Wunderground v.1.15,2013-02-13 16:00:00,
2013-02-13 11:05:00,37.0,24.8,29.91,West,269,4.0,7.0,61,0.00,,,0.00,Wunderground v.1.15,2013-02-13 16:05:00,
2013-02-13 11:10:00,37.1,24.9,29.92,WSW,256,7.0,8.0,61,0.00,,,0.00,Wunderground v.1.15,2013-02-13 16:10:00,
2013-02-13 11:15:00,36.8,24.2,29.92,West,275,3.0,8.0,60,0.00,,,0.00,Wunderground v.1.15,2013-02-13 16:15:00,
2013-02-13 11:20:00,36.4,24.2,29.92,WSW,238,0.0,6.0,61,0.00,,,0.00,Wunderground v.1.15,2013-02-13 16:20:00,
2013-02-13 11:25:00,37.3,25.1,29.92,WNW,284,2.0,7.0,61,0.00,,,0.00,Wunderground v.1.15,2013-02-13 16:25:00,
2013-02-13 11:30:00,37.9,25.2,29.92,WSW,245,6.0,6.0,60,0.00,,,0.00,Wunderground v.1.15,2013-02-13 16:30:00,
2013-02-13 11:35:00,37.7,25.5,29.92,West,277,3.0,11.0,61,0.00,,,0.00,Wunderground v.1.15,2013-02-13 16:35:00,
2013-02-13 11:40:00,37.3,25.5,29.91,WSW,257,4.0,9.0,62,0.00,,,0.00,Wunderground v.1.15,2013-02-13 16:40:00,
2013-02-13 11:46:00,37.3,26.2,29.91,WNW,294,5.0,9.0,64,0.00,,,0.00,Wunderground v.1.15,2013-02-13 16:46:00,
2013-02-13 11:51:00,37.1,24.5,29.90,WSW,250,9.0,9.0,60,0.00,,,0.00,Wunderground v.1.15,2013-02-13 16:51:00,
2013-02-13 11:55:00,37.1,24.5,29.90,SW,234,2.0,9.0,60,0.00,,,0.00,Wunderground v.1.15,2013-02-13 16:55:00,
2013-02-13 12:00:00,37.6,24.6,29.90,NW,304,2.0,6.0,59,0.00,,,0.00,Wunderground v.1.15,2013-02-13 17:00:00,
2013-02-13 12:05:00,37.8,24.3,29.90,WSW,241,1.0,7.0,58,0.00,,,0.00,Wunderground v.1.15,2013-02-13 17:05:00,
2013-02-13 12:10:00,38.0,24.5,29.90,SSW,198,0.0,5.0,58,0.00,,,0.00,Wunderground v.1.15,2013-02-13 17:10:00,
2013-02-13 12:15:00,38.3,24.8,29.90,SSW,207,4.0,7.0,58,0.00,,,0.00,Wunderground v.1.15,2013-02-13 17:15:00,
2013-02-13 12:20:00,38.3,24.4,29.90,SSW,192,3.0,8.0,57,0.00,,,0.00,Wunderground v.1.15,2013-02-13 17:20:00,
2013-02-13 12:25:00,38.2,24.3,29.90,SSE,159,4.0,8.0,57,0.00,,,0.00,Wunderground v.1.15,2013-02-13 17:25:00,
2013-02-13 12:31:00,38.8,24.9,29.90,West,279,6.0,6.0,57,0.00,,,0.00,Wunderground v.1.15,2013-02-13 17:31:00,
2013-02-13 12:36:00,38.2,24.3,29.90,NNW,340,3.0,10.0,57,0.00,,,0.00,Wunderground v.1.15,2013-02-13 17:36:00,
2013-02-13 12:41:00,38.6,24.7,29.90,SW,224,5.0,8.0,57,0.00,,,0.00,Wunderground v.1.15,2013-02-13 17:41:00,
2013-02-13 12:46:00,38.6,24.7,29.90,WNW,302,5.0,10.0,57,0.00,,,0.00,Wunderground v.1.15,2013-02-13 17:46:00,
2013-02-13 12:51:00,38.6,25.5,29.89,NNW,342,5.0,9.0,59,0.00,,,0.00,Wunderground v.1.15,2013-02-13 17:51:00,
2013-02-13 12:56:00,38.5,27.0,29.89,WNW,289,2.0,9.0,63,0.00,,,0.00,Wunderground v.1.15,2013-02-13 17:56:00,
2013-02-13 13:01:00,38.7,25.2,29.89,West,271,2.0,7.0,58,0.00,,,0.00,Wunderground v.1.15,2013-02-13 18:01:00,
2013-02-13 13:06:00,39.3,24.9,29.89,WNW,295,1.0,9.0,56,0.00,,,0.00,Wunderground v.1.15,2013-02-13 18:06:00,
2013-02-13 13:11:00,39.2,24.8,29.89,WNW,300,4.0,6.0,56,0.00,,,0.00,Wunderground v.1.15,2013-02-13 18:11:00,
2013-02-13 13:16:00,39.1,24.7,29.89,West,267,3.0,8.0,56,0.00,,,0.00,Wunderground v.1.15,2013-02-13 18:16:00,
2013-02-13 13:21:00,39.2,24.4,29.89,NNW,331,6.0,12.0,55,0.00,,,0.00,Wunderground v.1.15,2013-02-13 18:21:00,
2013-02-13 13:26:00,39.3,24.5,29.89,WSW,246,4.0,12.0,55,0.00,,,0.00,Wunderground v.1.15,2013-02-13 18:26:00,
2013-02-13 13:31:00,39.7,24.8,29.89,WSW,241,3.0,9.0,55,0.00,,,0.00,Wunderground v.1.15,2013-02-13 18:31:00,
2013-02-13 13:36:00,39.7,24.8,29.88,South,188,4.0,12.0,55,0.00,,,0.00,Wunderground v.1.15,2013-02-13 18:36:00,
2013-02-13 13:41:00,39.6,24.7,29.89,SW,226,7.0,9.0,55,0.00,,,0.00,Wunderground v.1.15,2013-02-13 18:41:00,
2013-02-13 13:46:00,39.2,24.4,29.88,South,191,7.0,12.0,55,0.00,,,0.00,Wunderground v.1.15,2013-02-13 18:46:00,
2013-02-13 13:51:00,39.6,25.2,29.88,West,263,3.0,8.0,56,0.00,,,0.00,Wunderground v.1.15,2013-02-13 18:51:00,
2013-02-13 13:56:00,39.4,24.1,29.87,WSW,254,4.0,12.0,54,0.00,,,0.00,Wunderground v.1.15,2013-02-13 18:56:00,
2013-02-13 14:01:00,40.2,29.7,29.87,SW,221,2.0,7.0,66,0.00,,,0.00,Wunderground v.1.15,2013-02-13 19:01:00,
2013-02-13 14:06:00,40.8,27.2,29.86,West,270,6.0,10.0,58,0.00,,,0.00,Wunderground v.1.15,2013-02-13 19:06:00,
2013-02-13 14:11:00,40.8,25.4,29.86,NW,322,1.0,8.0,54,0.00,,,0.00,Wunderground v.1.15,2013-02-13 19:11:00,
2013-02-13 14:16:00,40.3,24.5,29.86,West,278,5.0,8.0,53,0.00,,,0.00,Wunderground v.1.15,2013-02-13 19:16:00,
2013-02-13 14:21:00,40.2,24.4,29.86,West,279,2.0,7.0,53,0.00,,,0.00,Wunderground v.1.15,2013-02-13 19:21:00,
2013-02-13 14:26:00,40.8,25.4,29.86,South,184,1.0,7.0,54,0.00,,,0.00,Wunderground v.1.15,2013-02-13 19:26:00,
2013-02-13 14:32:00,40.7,24.4,29.86,South,174,3.0,6.0,52,0.00,,,0.00,Wunderground v.1.15,2013-02-13 19:32:00,
2013-02-13 14:37:00,40.4,24.6,29.85,NW,310,2.0,8.0,53,0.00,,,0.00,Wunderground v.1.15,2013-02-13 19:37:00,
2013-02-13 14:42:00,40.9,25.1,29.85,SW,227,4.0,6.0,53,0.00,,,0.00,Wunderground v.1.15,2013-02-13 19:42:00,
2013-02-13 14:47:00,40.7,24.9,29.85,WNW,292,3.0,6.0,53,0.00,,,0.00,Wunderground v.1.15,2013-02-13 19:47:00,
2013-02-13 14:52:00,40.6,25.2,29.85,WNW,284,0.0,5.0,54,0.00,,,0.00,Wunderground v.1.15,2013-02-13 19:52:00,
2013-02-13 14:57:00,40.9,25.1,29.85,NW,316,1.0,3.0,53,0.00,,,0.00,Wunderground v.1.15,2013-02-13 19:57:00,
2013-02-13 15:02:00,41.0,24.7,29.85,NW,322,0.0,5.0,52,0.00,,,0.00,Wunderground v.1.15,2013-02-13 20:02:00,
2013-02-13 15:07:00,40.8,24.5,29.84,WSW,257,7.0,7.0,52,0.00,,,0.00,Wunderground v.1.15,2013-02-13 20:07:00,
2013-02-13 15:12:00,40.2,24.4,29.84,WSW,254,1.0,7.0,53,0.00,,,0.00,Wunderground v.1.15,2013-02-13 20:12:00,
2013-02-13 15:17:00,40.7,24.4,29.84,WSW,254,3.0,3.0,52,0.00,,,0.00,Wunderground v.1.15,2013-02-13 20:17:00,
2013-02-13 15:22:00,40.6,24.3,29.83,West,269,2.0,6.0,52,0.00,,,0.00,Wunderground v.1.15,2013-02-13 20:22:00,
2013-02-13 15:27:00,40.0,24.2,29.84,WSW,248,4.0,4.0,53,0.00,,,0.00,Wunderground v.1.15,2013-02-13 20:27:00,
2013-02-13 15:32:00,39.9,24.1,29.83,WNW,296,4.0,5.0,53,0.00,,,0.00,Wunderground v.1.15,2013-02-13 20:32:00,
2013-02-13 15:37:00,40.0,24.7,29.83,WNW,288,0.0,3.0,54,0.00,,,0.00,Wunderground v.1.15,2013-02-13 20:37:00,
2013-02-13 15:42:00,40.5,24.2,29.83,NW,314,2.0,6.0,52,0.00,,,0.00,Wunderground v.1.15,2013-02-13 20:42:00,
2013-02-13 15:47:00,40.4,24.6,29.84,NNW,338,1.0,2.0,53,0.00,,,0.00,Wunderground v.1.15,2013-02-13 20:47:00,
2013-02-13 15:52:00,41.0,24.7,29.83,WNW,284,0.0,3.0,52,0.00,,,0.00,Wunderground v.1.15,2013-02-13 20:52:00,
2013-02-13 15:57:00,40.9,24.1,29.83,WNW,302,4.0,4.0,51,0.00,,,0.00,Wunderground v.1.15,2013-02-13 20:57:00,
2013-02-13 16:02:00,40.9,25.1,29.83,WNW,302,2.0,4.0,53,0.00,,,0.00,Wunderground v.1.15,2013-02-13 21:02:00,
2013-02-13 16:07:00,40.6,24.8,29.83,NW,315,0.0,1.0,53,0.00,,,0.00,Wunderground v.1.15,2013-02-13 21:07:00,
2013-02-13 16:12:00,40.7,24.9,29.83,NW,321,2.0,4.0,53,0.00,,,0.00,Wunderground v.1.15,2013-02-13 21:12:00,
2013-02-13 16:17:00,40.7,24.4,29.83,NW,321,1.0,2.0,52,0.00,,,0.00,Wunderground v.1.15,2013-02-13 21:17:00,
2013-02-13 16:23:00,40.7,24.4,29.83,NW,304,1.0,4.0,52,0.00,,,0.00,Wunderground v.1.15,2013-02-13 21:23:00,
2013-02-13 16:28:00,40.4,24.1,29.83,NNW,329,2.0,5.0,52,0.00,,,0.00,Wunderground v.1.15,2013-02-13 21:28:00,
2013-02-13 16:33:00,39.8,24.0,29.83,NNW,331,1.0,5.0,53,0.00,,,0.00,Wunderground v.1.15,2013-02-13 21:33:00,
2013-02-13 16:38:00,39.5,24.2,29.83,NNW,327,0.0,3.0,54,0.00,,,0.00,Wunderground v.1.15,2013-02-13 21:38:00,
2013-02-13 16:43:00,39.1,23.8,29.83,NNW,327,3.0,3.0,54,0.00,,,0.00,Wunderground v.1.15,2013-02-13 21:43:00,
2013-02-13 16:48:00,39.7,33.1,29.83,NNW,327,2.0,2.0,77,0.00,,,0.00,Wunderground v.1.15,2013-02-13 21:48:00,
2013-02-13 16:53:00,40.8,35.1,29.83,NNW,327,0.0,3.0,80,0.00,,,0.00,Wunderground v.1.15,2013-02-13 21:53:00,
2013-02-13 16:58:00,42.0,36.3,29.83,NNW,327,0.0,1.0,80,0.00,,,0.00,Wunderground v.1.15,2013-02-13 21:58:00,
2013-02-13 17:03:00,44.3,40.1,29.83,NNW,327,0.0,1.0,85,0.00,,,0.00,Wunderground v.1.15,2013-02-13 22:03:00,
2013-02-13 17:08:00,49.5,46.7,29.83,NNW,327,0.0,1.0,90,0.00,,,0.00,Wunderground v.1.15,2013-02-13 22:08:00,
2013-02-13 17:13:00,46.6,38.1,29.83,NNW,327,0.0,1.0,72,0.00,,,0.00,Wunderground v.1.15,2013-02-13 22:13:00,
2013-02-13 17:18:00,43.9,28.8,29.83,NNW,327,0.0,0.0,55,0.00,,,0.00,Wunderground v.1.15,2013-02-13 22:18:00,
2013-02-13 17:23:00,41.9,26.9,29.83,NNW,327,0.0,0.0,55,0.00,,,0.00,Wunderground v.1.15,2013-02-13 22:23:00,
2013-02-13 17:28:00,40.6,26.1,29.83,NNW,327,0.0,0.0,56,0.00,,,0.00,Wunderground v.1.15,2013-02-13 22:28:00,
2013-02-13 17:33:00,39.5,26.3,29.82,NNW,327,0.0,0.0,59,0.00,,,0.00,Wunderground v.1.15,2013-02-13 22:33:00,
2013-02-13 17:38:00,38.5,26.2,29.82,NNW,327,0.0,0.0,61,0.00,,,0.00,Wunderground v.1.15,2013-02-13 22:38:00,
2013-02-13 17:44:00,37.4,25.2,29.82,NNW,327,0.0,0.0,61,0.00,,,0.00,Wunderground v.1.15,2013-02-13 22:44:00,
2013-02-13 17:49:00,36.6,24.4,29.82,NNW,327,0.0,0.0,61,0.00,,,0.00,Wunderground v.1.15,2013-02-13 22:49:00,
2013-02-13 17:54:00,36.2,25.9,29.82,NNW,327,0.0,0.0,66,0.00,,,0.00,Wunderground v.1.15,2013-02-13 22:54:00,
2013-02-13 17:59:00,36.3,25.3,29.82,NNW,327,0.0,0.0,64,0.00,,,0.00,Wunderground v.1.15,2013-02-13 22:59:00,
2013-02-13 18:04:00,36.2,25.2,29.82,NNW,327,0.0,0.0,64,0.00,,,0.00,Wunderground v.1.15,2013-02-13 23:04:00,
2013-02-13 18:09:00,36.0,25.7,29.82,NNW,327,0.0,0.0,66,0.00,,,0.00,Wunderground v.1.15,2013-02-13 23:09:00,
2013-02-13 18:14:00,35.9,26.4,29.81,NNW,327,0.0,0.0,68,0.00,,,0.00,Wunderground v.1.15,2013-02-13 23:14:00,
2013-02-13 18:19:00,35.7,26.2,29.82,NNW,327,0.0,0.0,68,0.00,,,0.00,Wunderground v.1.15,2013-02-13 23:19:00,
2013-02-13 18:24:00,35.0,25.1,29.81,NNW,327,0.0,0.0,67,0.00,,,0.00,Wunderground v.1.15,2013-02-13 23:24:00,
2013-02-13 18:29:00,34.1,24.6,29.82,NNW,327,0.0,0.0,68,0.00,,,0.00,Wunderground v.1.15,2013-02-13 23:29:00,
2013-02-13 18:34:00,33.8,25.0,29.81,NNW,327,0.0,1.0,70,0.00,,,0.00,Wunderground v.1.15,2013-02-13 23:34:00,
2013-02-13 18:39:00,33.9,25.8,29.81,NNW,327,0.0,0.0,72,0.00,,,0.00,Wunderground v.1.15,2013-02-13 23:39:00,
2013-02-13 18:44:00,33.0,24.6,29.82,NNW,327,0.0,1.0,71,0.00,,,0.00,Wunderground v.1.15,2013-02-13 23:44:00,
2013-02-13 18:49:00,32.5,24.1,29.82,NNW,327,0.0,1.0,71,0.00,,,0.00,Wunderground v.1.15,2013-02-13 23:49:00,
2013-02-13 18:54:00,32.1,24.1,29.82,NNW,327,0.0,2.0,72,0.00,,,0.00,Wunderground v.1.15,2013-02-13 23:54:00,
2013-02-13 18:59:00,31.8,24.5,29.82,NNW,327,0.0,1.0,74,0.00,,,0.00,Wunderground v.1.15,2013-02-13 23:59:00,
2013-02-13 19:04:00,45.3,42.0,29.82,NNW,327,0.0,1.0,88,0.00,,,0.00,Wunderground v.1.15,2013-02-14 00:04:00,
2013-02-13 19:09:00,56.2,52.7,29.82,NNW,327,0.0,0.0,88,0.00,,,0.00,Wunderground v.1.15,2013-02-14 00:09:00,
2013-02-13 19:14:00,54.3,50.8,29.82,NNW,327,1.0,1.0,88,0.00,,,0.00,Wunderground v.1.15,2013-02-14 00:14:00,
2013-02-13 19:19:00,50.9,47.8,29.81,NNW,327,0.0,1.0,89,0.00,,,0.00,Wunderground v.1.15,2013-02-14 00:19:00,
2013-02-13 19:25:00,45.7,42.6,29.81,NNW,327,0.0,1.0,89,0.00,,,0.00,Wunderground v.1.15,2013-02-14 00:25:00,
2013-02-13 19:30:00,55.1,51.9,29.80,NNW,327,0.0,1.0,89,0.00,,,0.00,Wunderground v.1.15,2013-02-14 00:30:00,
2013-02-13 19:35:00,50.6,47.5,29.81,NNW,327,0.0,1.0,89,0.00,,,0.00,Wunderground v.1.15,2013-02-14 00:35:00,
2013-02-13 19:40:00,39.2,34.2,29.81,NNW,327,0.0,0.0,82,0.00,,,0.00,Wunderground v.1.15,2013-02-14 00:40:00,
2013-02-13 19:45:00,35.5,30.2,29.81,NNW,327,0.0,0.0,81,0.00,,,0.00,Wunderground v.1.15,2013-02-14 00:45:00,
2013-02-13 19:50:00,34.3,29.1,29.82,NNW,327,0.0,0.0,81,0.00,,,0.00,Wunderground v.1.15,2013-02-14 00:50:00,
2013-02-13 19:55:00,33.4,29.1,29.81,NNW,327,0.0,0.0,84,0.00,,,0.00,Wunderground v.1.15,2013-02-14 00:55:00,
2013-02-13 20:00:00,32.5,27.9,29.81,NNW,327,0.0,0.0,83,0.00,,,0.00,Wunderground v.1.15,2013-02-14 01:00:00,
2013-02-13 20:05:00,31.9,27.0,29.81,NNW,327,1.0,1.0,82,0.00,,,0.00,Wunderground v.1.15,2013-02-14 01:05:00,
2013-02-13 20:10:00,31.3,26.1,29.81,NNW,327,0.0,2.0,81,0.00,,,0.00,Wunderground v.1.15,2013-02-14 01:10:00,
2013-02-13 20:15:00,30.8,25.7,29.81,NNW,327,0.0,2.0,81,0.00,,,0.00,Wunderground v.1.15,2013-02-14 01:15:00,
2013-02-13 20:20:00,30.4,25.3,29.81,NNW,327,0.0,2.0,81,0.00,,,0.00,Wunderground v.1.15,2013-02-14 01:20:00,
2013-02-13 20:25:00,30.1,25.0,29.81,NNW,327,1.0,3.0,81,0.00,,,0.00,Wunderground v.1.15,2013-02-14 01:25:00,
2013-02-13 20:30:00,30.1,25.3,29.82,NNW,327,1.0,1.0,82,0.00,,,0.00,Wunderground v.1.15,2013-02-14 01:30:00,
2013-02-13 20:35:00,30.0,25.2,29.82,NNW,327,0.0,2.0,82,0.00,,,0.00,Wunderground v.1.15,2013-02-14 01:35:00,
2013-02-13 20:40:00,30.1,25.3,29.81,NNW,327,1.0,2.0,82,0.00,,,0.00,Wunderground v.1.15,2013-02-14 01:40:00,
2013-02-13 20:45:00,30.4,25.9,29.79,NNW,327,1.0,2.0,83,0.00,,,0.00,Wunderground v.1.15,2013-02-14 01:45:00,
2013-02-13 20:50:00,30.8,26.0,29.79,NNW,327,0.0,1.0,82,0.00,,,0.00,Wunderground v.1.15,2013-02-14 01:50:00,
2013-02-13 20:55:00,31.0,25.9,29.80,NNW,327,1.0,2.0,81,0.00,,,0.00,Wunderground v.1.15,2013-02-14 01:55:00,
2013-02-13 21:00:00,30.7,25.3,29.80,NNW,327,2.0,3.0,80,0.00,,,0.00,Wunderground v.1.15,2013-02-14 02:00:00,
2013-02-13 21:05:00,30.5,25.1,29.79,NNW,327,1.0,3.0,80,0.00,,,0.00,Wunderground v.1.15,2013-02-14 02:05:00,
2013-02-13 21:10:00,30.4,25.0,29.80,NNW,327,0.0,2.0,80,0.00,,,0.00,Wunderground v.1.15,2013-02-14 02:10:00,
2013-02-13 21:15:00,30.3,25.2,29.80,NNW,327,0.0,2.0,81,0.00,,,0.00,Wunderground v.1.15,2013-02-14 02:15:00,
2013-02-13 21:20:00,30.3,25.2,29.80,NNW,327,0.0,1.0,81,0.00,,,0.00,Wunderground v.1.15,2013-02-14 02:20:00,
2013-02-13 21:25:00,30.3,25.2,29.80,NNW,327,0.0,1.0,81,0.00,,,0.00,Wunderground v.1.15,2013-02-14 02:25:00,
2013-02-13 21:31:00,30.5,25.4,29.80,NNW,327,0.0,2.0,81,0.00,,,0.00,Wunderground v.1.15,2013-02-14 02:31:00,
2013-02-13 21:36:00,30.6,25.2,29.80,NNW,327,0.0,2.0,80,0.00,,,0.00,Wunderground v.1.15,2013-02-14 02:36:00,
2013-02-13 21:41:00,30.5,25.4,29.80,NNW,327,0.0,1.0,81,0.00,,,0.00,Wunderground v.1.15,2013-02-14 02:41:00,
2013-02-13 21:46:00,30.5,25.4,29.81,NNW,327,0.0,1.0,81,0.00,,,0.00,Wunderground v.1.15,2013-02-14 02:46:00,
2013-02-13 21:51:00,30.4,25.0,29.82,NNW,327,0.0,0.0,80,0.00,,,0.00,Wunderground v.1.15,2013-02-14 02:51:00,
2013-02-13 21:56:00,30.5,25.1,29.81,NNW,327,0.0,0.0,80,0.00,,,0.00,Wunderground v.1.15,2013-02-14 02:56:00,
2013-02-13 22:01:00,30.8,25.7,29.81,NNW,327,0.0,0.0,81,0.00,,,0.00,Wunderground v.1.15,2013-02-14 03:01:00,
2013-02-13 22:06:00,30.8,25.7,29.80,NNW,327,0.0,0.0,81,0.00,,,0.00,Wunderground v.1.15,2013-02-14 03:06:00,
2013-02-13 22:11:00,30.9,25.8,29.80,NNW,327,0.0,0.0,81,0.00,,,0.00,Wunderground v.1.15,2013-02-14 03:11:00,
2013-02-13 22:16:00,31.0,25.9,29.80,NNW,327,1.0,2.0,81,0.00,,,0.00,Wunderground v.1.15,2013-02-14 03:16:00,
2013-02-13 22:21:00,30.8,25.4,29.80,NNW,327,1.0,2.0,80,0.00,,,0.00,Wunderground v.1.15,2013-02-14 03:21:00,
2013-02-13 22:26:00,30.6,25.2,29.80,NNW,327,0.0,2.0,80,0.00,,,0.00,Wunderground v.1.15,2013-02-14 03:26:00,
2013-02-13 22:31:00,30.7,25.9,29.79,NNW,327,0.0,0.0,82,0.00,,,0.00,Wunderground v.1.15,2013-02-14 03:31:00,
2013-02-13 22:36:00,30.9,26.1,29.79,NNW,327,0.0,1.0,82,0.00,,,0.00,Wunderground v.1.15,2013-02-14 03:36:00,
2013-02-13 22:41:00,31.0,26.1,29.79,NNW,327,0.0,0.0,82,0.00,,,0.00,Wunderground v.1.15,2013-02-14 03:41:00,
2013-02-13 22:46:00,30.7,25.6,29.80,NNW,327,0.0,1.0,81,0.00,,,0.00,Wunderground v.1.15,2013-02-14 03:46:00,
2013-02-13 22:51:00,30.6,25.5,29.81,NNW,327,0.0,2.0,81,0.00,,,0.00,Wunderground v.1.15,2013-02-14 03:51:00,
2013-02-13 22:56:00,30.5,25.7,29.80,NNW,327,0.0,2.0,82,0.00,,,0.00,Wunderground v.1.15,2013-02-14 03:56:00,
2013-02-13 23:01:00,30.6,25.8,29.80,NNW,327,1.0,1.0,82,0.00,,,0.00,Wunderground v.1.15,2013-02-14 04:01:00,
2013-02-13 23:06:00,30.8,25.4,29.79,NNW,327,0.0,2.0,80,0.00,,,0.00,Wunderground v.1.15,2013-02-14 04:06:00,
2013-02-13 23:11:00,31.1,25.7,29.79,NNW,327,1.0,1.0,80,0.00,,,0.00,Wunderground v.1.15,2013-02-14 04:11:00,
2013-02-13 23:16:00,31.1,25.7,29.78,NNW,327,0.0,1.0,80,0.00,,,0.00,Wunderground v.1.15,2013-02-14 04:16:00,
2013-02-13 23:22:00,31.1,25.7,29.78,NNW,327,1.0,1.0,80,0.00,,,0.00,Wunderground v.1.15,2013-02-14 04:22:00,
2013-02-13 23:27:00,31.1,25.3,29.77,NNW,327,0.0,3.0,79,0.00,,,0.00,Wunderground v.1.15,2013-02-14 04:27:00,
2013-02-13 23:32:00,31.3,25.2,29.76,NNW,327,1.0,2.0,78,0.00,,,0.00,Wunderground v.1.15,2013-02-14 04:32:00,
2013-02-13 23:37:00,31.6,24.9,29.77,NNW,327,0.0,2.0,76,0.00,,,0.00,Wunderground v.1.15,2013-02-14 04:37:00,
2013-02-13 23:42:00,31.9,24.6,29.77,NNW,327,2.0,4.0,74,0.00,,,0.00,Wunderground v.1.15,2013-02-14 04:42:00,
2013-02-13 23:43:00,32.4,24.7,29.81,NW,313,0.0,1.0,73,0.00,,,0.00,Wunderground v.1.15,2013-02-14 04:43:00,
2013-02-13 23:44:00,32.4,24.7,29.81,NW,313,0.0,1.0,73,0.00,,,0.00,Wunderground v.1.15,2013-02-14 04:44:00,
2013-02-13 23:45:00,32.4,24.4,29.81,NW,313,0.0,1.0,72,0.00,,,0.00,Wunderground v.1.15,2013-02-14 04:45:00,
2013-02-13 23:46:00,32.4,24.4,29.81,NW,313,0.0,2.0,72,0.00,,,0.00,Wunderground v.1.15,2013-02-14 04:46:00,
2013-02-13 23:47:00,32.1,24.4,29.78,NW,314,3.0,5.0,73,0.00,,,0.00,Wunderground v.1.15,2013-02-14 04:47:00,
2013-02-13 23:48:00,32.4,24.0,29.80,NW,313,1.0,2.0,71,0.00,,,0.00,Wunderground v.1.15,2013-02-14 04:48:00,
2013-02-13 23:49:00,32.4,24.0,29.80,NW,313,0.0,2.0,71,0.00,,,0.00,Wunderground v.1.15,2013-02-14 04:49:00,
2013-02-13 23:52:00,32.3,24.3,29.80,NW,313,0.0,4.0,72,0.00,,,0.00,Wunderground v.1.15,2013-02-14 04:52:00,
2013-02-13 23:57:00,32.3,24.3,29.80,NW,313,0.0,4.0,72,0.00,,,0.00,Wunderground v.1.15,2013-02-14 04:57:00,